(706) 295-7835

For Pilots

METAR

KRMG 272053Z AUTO 25008G16KT 10SM BKN050 17/07 A2977 RMK AO2 SLP074 T01720067 56002

Location & Communications

Get detailed information about the airport, provided by AirNav.

Pilot Services

We have fuel services, on-site repair and maintenance, 24-hour security and more.

Fuel Points

Russell Regional Airport is a Shell Aviation merchant and is proud to participate in the Shell Aero Class Rewards program!

Hangar Availability

RMG offers 66 various sized T-Hangars for tenants and visitors (upon availability). Below, you will find the sizes of the hangars offered at RMG. If […]

Today's Fuel Prices

Jet A $7.58 / gallon
AvGas (100LL) $6.30 / gallon
Self Serve AvGas $5.90 / gallon
Learn about fuel points program